RH
35 37 38 40 46 48 43 37 33 30 30 29 30 34 36 40 47 48 51 55 49 41 42 45 49 51 51 50 52 53 54 53 53 56 57 57 58 56 55 56 54 53 50 42 37 36 36 35 35 36 38 38 40 42 44 50 52 52 55 60 63 67 77 88 90 84 80 79 78 81 84 83 75 71 75 76 75 74 73 74 74 72 70 67 65 66
37 38 39 45 50 45 38 33 30 31 33 35 36 38 39 45 50 47 50 56 49 41 43 45 49 53 51 49 52 54 56 55 54 55 57 57 57 57 56 56 55 54 50 44 39 37 36 36 37 36 37 39 40 40 39 44 51 50 50 54 56 60 67 76 82 83 84 84 82 81 84 85 81 77 73 73 74 72 70 72 72 71 71 68 67 69
38 37 42 50 48 39 34 31 33 37 40 42 42 44 47 50 53 53 52 53 46 41 45 47 47 51 50 50 52 54 56 57 55 55 56 55 56 56 56 55 55 53 50 46 43 40 38 37 38 37 37 38 40 41 37 38 48 52 50 50 52 57 61 65 72 79 84 86 80 77 81 81 82 85 77 70 73 70 69 70 69 69 69 67 68 70
34 34 44 49 41 36 36 34 38 43 45 49 49 52 55 54 55 55 51 50 49 44 44 47 49 50 50 51 54 54 56 57 56 57 56 55 55 53 54 54 53 53 51 48 46 43 41 39 38 39 39 38 39 42 39 37 44 51 51 49 49 53 57 61 68 75 81 85 80 76 79 79 81 88 81 73 73 69 67 68 67 68 68 66 66 66
32 37 47 45 38 37 36 36 40 45 48 50 51 52 54 52 51 48 47 49 49 44 45 47 49 51 52 55 58 56 55 57 56 56 56 56 55 54 54 52 51 52 51 49 48 46 44 42 40 40 39 40 40 41 42 41 42 48 52 50 47 49 53 56 60 66 71 76 81 81 79 79 80 84 83 77 74 69 67 67 68 70 69 67 64 63
33 42 48 42 38 37 34 36 42 47 50 49 50 50 48 48 47 46 48 50 50 49 54 57 59 62 61 61 63 59 58 58 57 58 58 57 56 55 56 53 51 51 49 48 49 48 47 45 43 41 40 40 41 42 42 42 41 46 52 51 51 52 54 56 54 54 58 63 72 77 77 77 77 77 78 78 75 71 69 69 70 72 70 67 64 64
38 44 44 40 37 34 34 41 46 48 48 49 51 48 45 46 47 48 48 53 60 58 56 60 66 73 73 68 67 64 62 61 60 61 59 57 57 57 57 55 52 52 49 45 44 47 49 48 47 44 41 39 40 42 42 42 42 44 48 52 56 57 56 57 54 49 49 53 60 68 74 76 76 74 72 71 71 70 70 71 72 73 71 69 67 68
43 41 37 35 33 31 36 44 46 45 43 44 48 45 45 46 46 49 45 48 58 56 52 55 59 70 77 75 72 68 67 66 65 64 60 58 58 57 56 55 55 55 54 49 44 43 45 49 50 48 44 39 38 40 41 41 42 42 44 47 54 59 57 55 55 51 46 46 51 59 70 74 72 70 68 66 68 69 70 71 71 70 71 71 70 68
39 35 32 32 30 30 37 39 35 36 38 39 42 42 42 41 41 44 43 46 52 52 57 63 64 71 78 79 74 71 70 69 67 65 62 60 59 59 58 57 56 56 56 54 47 43 44 46 50 50 47 42 38 38 40 39 39 40 41 43 45 52 55 53 53 53 49 47 46 49 62 70 68 65 64 63 66 67 67 69 70 68 67 68 69 66
39 36 34 35 35 32 34 31 27 31 36 37 39 38 38 40 43 44 45 52 57 57 61 67 70 72 75 77 76 75 74 70 68 66 64 63 61 60 58 56 56 54 54 54 48 46 48 46 46 48 47 45 40 38 39 38 37 37 38 39 41 43 45 46 46 48 48 49 48 47 53 63 64 62 62 61 62 63 63 65 67 67 65 65 65 65
39 39 39 40 39 35 32 28 28 32 33 36 41 44 46 48 49 48 48 53 60 62 61 63 65 64 70 78 79 80 76 69 69 67 65 64 60 57 55 53 53 52 52 51 46 50 52 47 45 46 45 45 43 38 37 37 37 36 35 36 38 39 40 40 40 42 42 44 47 48 50 57 61 60 61 60 59 60 60 60 61 61 61 63 64 64
38 43 43 41 39 37 33 29 30 31 31 39 47 52 56 56 54 54 56 58 64 68 65 64 61 55 66 79 78 77 72 66 67 65 62 59 55 54 53 50 48 48 49 48 46 51 50 45 46 46 45 44 43 40 38 37 36 36 35 35 35 36 37 38 38 39 39 38 40 42 46 54 59 60 60 59 58 58 59 58 58 57 57 61 65 67
40 41 39 41 44 41 36 32 32 33 34 41 50 56 60 63 64 66 68 67 71 76 70 66 62 55 64 74 72 71 66 58 57 56 54 52 51 52 49 45 42 42 47 47 48 51 47 42 42 43 44 45 44 43 40 38 37 36 35 35 34 34 34 35 35 36 37 36 35 34 39 49 56 58 60 61 58 57 58 57 56 57 58 60 64 67
38 37 38 45 49 42 38 36 35 35 34 40 50 54 59 65 68 72 75 73 74 77 70 64 64 64 68 69 64 64 59 50 47 49 51 50 49 46 40 37 37 38 42 44 46 50 49 44 39 37 39 41 43 44 42 41 40 38 37 35 34 34 33 33 33 33 34 35 35 33 33 42 53 56 57 60 59 58 61 62 60 58 57 57 58 61
35 39 43 46 46 40 36 34 34 36 39 46 52 52 58 66 67 69 73 74 76 74 65 63 68 72 74 71 64 60 55 50 49 51 51 50 46 41 36 35 34 33 35 37 41 46 50 50 44 37 35 35 37 40 43 45 44 42 40 37 35 35 34 33 33 32 32 32 33 33 30 34 45 53 58 60 59 61 65 67 66 63 59 56 59 65
35 40 43 43 43 40 36 34 38 43 48 51 48 50 63 68 66 65 65 67 70 67 62 64 69 70 69 67 63 59 55 53 53 52 51 50 46 41 39 38 34 30 31 34 37 41 46 51 48 40 35 32 32 34 38 43 46 45 44 42 40 38 35 34 33 32 32 30 30 31 31 30 34 42 50 55 57 61 66 66 65 64 63 63 66 71
39 40 43 43 42 39 37 38 42 47 50 48 45 50 58 56 57 62 60 58 59 60 63 69 73 72 69 68 66 62 60 57 55 54 50 48 45 40 37 34 31 31 33 35 36 37 41 46 46 39 34 31 29 31 34 37 41 43 44 45 45 43 40 36 34 33 33 32 30 30 31 30 31 33 37 41 42 45 53 56 55 54 56 59 62 63
44 41 44 44 42 41 40 42 47 47 44 45 47 47 46 47 56 60 56 55 57 59 63 69 76 78 76 76 71 65 62 58 55 53 48 44 43 38 31 29 30 31 32 34 37 37 39 43 43 36 32 32 30 29 30 32 35 38 40 43 46 47 46 42 39 35 33 33 32 31 30 30 31 31 32 32 30 28 31 38 43 45 47 49 53 54
47 41 44 46 42 42 43 46 48 44 38 40 45 45 46 52 58 57 56 60 63 62 60 62 70 73 73 75 71 65 62 56 52 50 45 40 38 33 28 28 30 31 32 34 36 37 39 40 39 32 30 32 31 29 29 31 33 35 36 38 42 46 48 47 45 42 38 36 34 33 32 31 30 31 32 32 31 27 23 24 30 38 43 45 47 49
44 40 45 45 40 44 49 48 45 41 35 36 42 47 49 51 51 51 55 59 61 62 60 57 62 70 71 70 66 61 56 52 49 45 39 37 34 30 29 29 30 32 32 33 35 37 38 34 30 27 28 31 32 32 33 32 34 35 34 34 37 40 43 45 47 46 45 42 39 37 34 32 31 30 31 32 32 33 29 26 24 27 36 42 42 45
42 42 48 46 39 45 52 48 44 43 38 38 43 47 48 48 46 46 51 56 58 61 62 59 63 72 70 64 62 57 50 47 44 39 35 33 31 29 30 30 30 30 30 32 34 36 34 28 24 25 28 30 33 35 36 36 36 36 35 34 33 34 36 38 41 43 45 45 44 44 41 38 35 32 31 31 31 32 33 32 28 24 27 33 37 41
42 42 49 49 43 47 53 50 46 45 42 42 42 42 45 46 43 42 49 57 57 56 59 59 63 69 66 60 58 52 45 43 40 36 33 29 28 29 30 29 28 28 30 31 33 34 31 28 28 29 32 34 37 39 40 40 40 39 39 39 38 38 38 38 39 40 40 42 43 44 45 44 43 40 37 35 32 31 32 32 31 28 24 24 28 35
42 44 49 50 48 51 55 52 48 46 44 45 42 40 41 41 40 41 46 51 53 51 52 52 57 66 64 56 52 45 41 41 38 32 29 28 29 30 29 29 28 29 30 30 33 36 35 33 35 36 38 39 40 41 43 45 45 45 45 44 44 44 43 42 42 42 40 40 40 41 42 43 44 44 43 41 39 36 34 32 32 31 29 25 23 26
46 50 52 50 48 51 57 56 53 49 46 45 43 40 39 38 37 36 36 40 47 52 54 52 54 63 61 51 47 44 40 36 30 27 27 30 32 31 29 30 30 30 32 32 35 39 39 39 42 44 45 43 43 45 47 48 48 47 47 47 47 46 46 45 44 44 43 42 41 41 40 41 42 42 43 44 43 42 40 38 36 34 33 30 26 24
48 54 55 52 48 51 58 60 56 52 46 42 40 36 37 39 34 29 29 36 48 56 54 47 46 53 53 46 44 42 35 29 26 27 30 32 32 31 30 31 32 32 33 34 37 40 41 43 46 48 49 49 50 52 52 51 49 48 48 48 48 47 46 46 45 45 46 45 44 43 42 42 41 41 41 41 42 43 44 44 43 40 38 35 32 29
48 56 58 56 52 52 55 54 50 50 45 40 39 36 37 40 35 29 30 38 49 52 45 38 38 41 39 36 37 36 32 29 29 30 32 33 33 33 32 32 32 31 33 36 39 41 42 44 47 49 50 53 55 54 53 51 50 50 51 51 51 50 49 49 48 48 48 47 47 46 45 44 43 42 42 42 41 41 41 43 44 45 44 41 38 36
50 57 59 59 57 56 57 54 52 53 47 42 41 38 37 39 37 32 33 42 49 45 39 43 43 38 34 32 32 33 30 30 33 34 34 34 34 35 34 32 30 30 34 38 40 42 41 43 47 49 51 53 55 53 52 51 51 52 54 55 55 55 53 52 51 50 50 49 49 49 48 47 46 45 44 43 43 42 41 41 42 43 45 45 43 41
57 59 59 61 62 60 59 58 57 58 55 52 49 42 37 38 37 35 36 43 46 39 38 46 44 38 37 35 34 35 33 33 36 37 36 36 36 36 34 32 30 32 35 40 43 41 40 44 50 53 52 51 52 53 53 53 55 55 55 56 56 56 55 54 53 53 53 52 51 51 50 49 48 48 47 45 43 43 43 41 40 40 41 44 45 44
61 61 59 60 62 63 63 61 60 60 60 59 55 48 43 40 39 40 41 41 42 39 38 42 41 39 40 40 39 37 34 35 38 38 38 37 36 36 33 32 34 35 36 41 43 40 42 50 58 60 56 51 51 55 56 57 58 58 57 57 57 57 57 56 56 56 56 56 55 53 51 50 48 48 48 47 44 43 43 43 42 41 40 40 43 44
63 64 61 59 63 65 64 61 59 60 62 62 59 53 49 46 42 46 49 46 46 46 43 43 45 44 43 42 41 36 33 36 39 39 40 38 37 36 33 34 37 37 38 38 35 38 51 62 66 66 61 54 56 60 61 63 63 61 60 60 59 60 59 58 58 57 56 56 55 54 52 50 49 49 49 49 47 44 43 43 43 42 41 39 39 41
67 69 67 65 65 64 61 59 58 58 62 65 63 60 58 54 49 52 56 53 51 51 51 52 53 49 44 41 38 35 34 37 39 41 41 38 38 37 34 37 39 38 40 36 28 37 57 66 66 66 61 59 64 68 69 69 67 65 64 63 62 62 60 59 57 56 56 56 56 55 54 52 51 51 51 52 52 50 47 45 43 43 43 42 40 39
68 69 68 67 65 61 56 56 56 56 60 65 68 69 68 60 52 53 56 54 53 54 55 56 54 50 44 39 36 36 37 38 41 42 41 39 40 38 37 41 40 36 40 37 27 35 57 65 61 60 60 63 67 70 71 71 69 67 66 64 63 62 60 58 57 56 56 57 57 56 55 55 54 53 53 53 54 55 53 50 46 43 42 43 43 42
62 63 63 64 65 61 55 53 52 52 58 66 68 68 67 61 55 55 55 53 53 54 55 54 51 47 42 37 37 38 40 42 43 43 42 41 42 41 40 42 39 36 41 39 29 34 54 63 59 57 60 63 66 69 72 72 70 67 65 64 63 62 59 58 56 56 56 57 57 56 55 55 55 54 55 55 55 55 55 53 49 45 43 43 44 45
60 61 62 63 63 61 56 53 52 52 60 67 63 59 59 59 59 60 56 52 52 52 52 52 50 45 41 38 40 42 43 43 43 43 43 42 43 44 41 39 36 39 43 40 31 34 50 62 61 59 61 63 66 70 72 70 69 67 64 63 63 61 57 55 55 56 59 60 60 58 57 55 54 54 55 56 57 58 58 56 53 49 46 44 44 46
61 61 60 60 60 60 55 53 55 58 61 63 60 56 57 58 58 57 53 51 52 51 49 48 46 42 40 41 43 45 46 43 40 42 43 42 44 44 39 36 38 42 45 41 32 32 45 60 64 61 62 65 67 70 71 70 68 66 64 62 61 58 56 55 57 60 63 63 62 61 62 60 56 55 58 60 60 59 60 60 58 55 52 49 46 46
61 62 61 60 60 60 56 54 57 57 56 58 61 61 60 60 59 57 54 53 53 51 48 44 42 41 42 44 46 47 47 44 41 42 44 43 43 40 37 39 42 44 44 40 32 29 40 57 65 64 64 66 67 69 71 70 68 66 64 62 60 57 56 57 59 61 63 63 63 65 69 70 66 62 62 63 63 63 62 61 59 58 57 55 52 49
58 59 62 63 61 58 55 53 53 53 54 59 63 61 59 59 58 57 57 58 56 53 49 44 44 45 46 48 50 50 49 49 46 43 43 42 39 37 40 44 46 45 43 38 30 27 34 50 62 65 66 67 68 69 69 70 70 70 68 66 63 60 59 60 61 63 65 66 68 71 73 74 74 68 62 63 64 65 64 60 58 58 58 58 55 52
56 56 60 64 62 56 54 54 54 56 57 58 60 57 55 57 55 52 58 65 65 58 51 48 49 51 52 53 54 52 52 54 49 44 44 43 39 40 46 49 47 46 43 37 31 27 29 40 55 63 65 66 68 68 68 70 73 73 73 71 69 65 62 61 64 68 71 72 74 76 76 75 73 68 64 66 70 71 68 62 59 61 61 59 57 56
59 57 58 61 59 56 54 55 56 58 57 57 58 55 55 57 54 51 60 71 68 57 52 52 54 56 57 57 56 54 54 56 52 48 49 48 44 47 51 50 48 47 43 36 32 28 26 32 44 56 62 65 66 66 66 68 71 74 74 74 73 68 62 63 71 76 77 77 77 79 81 80 73 67 66 70 73 73 70 65 63 64 63 60 59 58
63 61 59 59 58 56 56 57 56 54 56 58 57 54 55 56 53 55 66 70 63 55 54 56 58 59 60 59 57 55 55 58 56 52 52 51 48 50 52 50 50 49 45 38 33 29 26 28 35 46 55 62 66 67 63 62 67 72 74 75 75 68 61 66 78 81 80 81 79 79 84 86 81 74 71 74 78 78 74 70 66 65 62 59 58 59
62 62 60 58 57 55 56 58 55 53 56 58 54 52 55 55 56 64 69 64 59 60 59 58 60 62 62 60 58 56 57 57 56 53 53 53 51 50 51 51 50 49 45 37 31 29 27 26 30 40 49 56 65 71 65 59 64 71 75 77 75 66 60 70 83 84 82 83 82 81 85 89 88 84 80 79 83 86 84 78 71 65 63 61 58 59
58 58 58 58 56 55 55 55 52 54 59 59 55 54 55 57 62 67 63 58 59 61 60 60 62 63 62 61 58 57 58 58 56 55 55 55 52 50 52 53 50 48 45 38 31 29 28 26 27 36 44 51 62 72 70 62 63 71 76 78 74 65 63 74 84 85 84 86 87 85 87 89 90 90 87 84 84 85 87 86 79 74 73 70 64 63
57 57 56 55 55 56 57 56 55 59 62 58 56 58 59 60 63 62 58 57 58 59 58 60 61 62 64 63 60 60 61 60 59 58 56 55 52 49 51 54 51 49 48 42 34 28 27 27 26 31 41 51 61 73 74 65 63 70 76 78 74 68 68 74 80 84 86 86 87 87 88 89 91 90 89 89 89 89 89 89 87 85 86 82 76 74
57 57 57 56 56 56 57 58 58 60 59 56 57 59 59 59 60 60 61 61 60 58 57 56 56 59 63 64 64 65 65 63 62 61 58 57 53 48 48 52 52 50 48 44 37 30 27 28 26 28 39 52 63 73 75 66 62 68 76 79 77 74 74 74 76 82 84 83 82 82 83 85 87 87 86 87 89 89 89 90 90 91 92 90 86 86
56 56 56 56 57 58 57 56 56 56 56 56 57 57 56 58 60 61 63 63 62 60 57 53 54 56 58 62 65 66 67 67 66 64 61 59 56 50 46 48 49 48 44 40 36 32 28 28 27 27 35 49 62 72 72 65 61 66 74 80 80 78 79 79 78 79 82 83 84 83 82 81 81 81 82 83 84 84 83 83 85 87 90 90 89 90
56 55 54 54 56 56 54 53 54 55 56 55 55 55 56 59 62 62 62 63 63 60 56 55 55 56 56 59 60 61 64 66 67 67 64 61 60 56 50 46 45 44 39 33 30 29 28 29 28 26 30 41 56 67 67 61 59 63 70 76 79 77 79 81 80 79 80 84 87 87 86 84 80 78 77 77 79 81 80 79 79 82 84 84 83 83
56 56 56 56 57 57 55 55 56 57 57 55 54 55 58 60 62 63 63 63 62 59 56 56 57 57 57 57 58 59 61 62 65 67 66 65 65 60 53 49 46 43 39 32 28 28 29 30 29 27 27 32 45 59 63 57 55 60 67 73 76 73 72 74 79 82 84 85 86 87 87 87 86 85 81 77 76 78 79 80 81 82 82 82 80 79
59 60 59 59 60 59 56 54 55 56 56 55 56 58 60 61 63 63 62 62 61 58 56 56 56 57 57 57 60 61 60 59 62 64 64 65 65 61 57 52 48 44 42 37 31 30 30 29 28 28 27 28 35 48 56 54 51 55 63 70 74 72 68 66 68 74 80 82 83 84 84 84 85 86 85 81 78 75 75 76 78 80 82 83 82 81
59 58 56 56 57 56 54 53 55 57 58 59 59 61 61 61 62 62 60 59 58 55 53 53 53 54 56 58 60 61 60 60 61 62 61 62 63 63 62 58 50 46 45 40 34 31 30 28 27 28 28 28 30 38 47 50 47 47 53 61 67 69 69 67 65 64 67 69 73 77 80 81 82 82 83 82 80 76 73 73 75 76 78 80 80 78
57 57 56 57 57 56 55 55 55 57 60 61 62 61 60 60 62 61 59 56 54 51 49 50 51 52 55 58 59 60 61 62 62 61 61 62 62 64 65 61 54 50 48 42 35 31 31 29 27 27 28 29 30 33 39 45 44 41 43 48 55 59 63 66 68 67 65 65 66 68 71 76 79 80 80 81 81 79 76 75 77 79 79 79 78 78
55 56 59 60 59 58 58 56 55 57 61 61 61 60 59 60 62 59 54 52 51 49 48 48 50 52 55 58 60 60 61 63 63 62 62 62 64 64 63 60 56 53 50 45 37 32 31 30 28 27 27 28 29 31 34 39 41 40 38 38 42 46 50 54 60 64 66 68 70 69 68 70 72 73 74 76 78 78 78 77 79 80 80 78 77 77